Weather History for Liepaja, Latvia

Change the Weather History Date:

Friday, January 18, 2013

  Actual Average Record
Temperature  
Mean Temperature 16 °F -  
Max Temperature 21 °F 31 °F - ()
Min Temperature 12 °F 22 °F - ()
Degree Days  
Heating Degree Days 48    
Moisture  
Dew Point 17 °F    
Average Humidity 90    
Maximum Humidity 100    
Minimum Humidity 71    
Precipitation  
Precipitation 0.00 in 0.05 in - ()
Sea Level Pressure  
Sea Level Pressure 30.05 in    
Wind  
Wind Speed 7 mph ()    
Max Wind Speed 14 mph    
Max Gust Speed -    
Visibility 6.3 miles    
Events      
T = Trace of Precipitation, MM = Missing Value Source: Averaged Metar Reports

Daily Weather History Graph

Daily Weather History Graph

Search for Another Location

Airport:

Trip Planner

Search our weather history database for the weather conditions in past years. The results will help you decide how hot, cold, wet, or windy it might be!

Date:

Astronomy

Jan. 18, 2013 Rise Set
Actual Time 8:55 AM EET 4:36 PM EET
Civil Twilight 8:11 AM EET 5:21 PM EET
Nautical Twilight 7:23 AM EET 6:09 PM EET
Astronomical Twilight 6:38 AM EET 6:54 PM EET
Moon 10:51 AM EET (1/18) 12:36 AM EET (1/18)
Length of Visible Light 9h 10m
Length of Day
7h 40m
Waxing Crescent, 44% of the Moon is Illuminated
Jan 18
Waxing Crescent
Jan 19
First Quarter
Jan 27
Full
Feb 3
Last Quarter
Feb 10
New

Hourly Weather History & Observations

Time (EET) Temp. Windchill Dew Point Humidity Pressure Visibility Wind Dir Wind Speed Gust Speed Precip Events Conditions
12:20 AM 21.2 °F 10.9 °F 17.6 °F 86% 30.09 in 6.2 mi NE 9.2 mph - N/A   Mostly Cloudy
12:50 AM 21.2 °F 9.5 °F 17.6 °F 86% 30.09 in 6.2 mi NE 11.5 mph - N/A   Mostly Cloudy
1:20 AM 19.4 °F 8.6 °F 17.6 °F 93% 30.09 in 6.2 mi NE 9.2 mph - N/A   Mostly Cloudy
1:50 AM 19.4 °F 12.8 °F 17.6 °F 93% 30.09 in 6.2 mi NE 4.6 mph - N/A   Mostly Cloudy
2:00 AM 19 °F - 15 °F 79% 30.11 in 6 mi NE 4.5 mph - -   Overcast
2:20 AM 19.4 °F 9.5 °F 17.6 °F 93% 30.09 in 6.2 mi NE 8.1 mph - N/A   Overcast
2:50 AM 19.4 °F 7.2 °F 17.6 °F 93% 30.09 in 6.2 mi NE 11.5 mph - N/A   Overcast
3:20 AM 19.4 °F 8.6 °F 17.6 °F 93% 30.09 in 6.2 mi NE 9.2 mph - N/A   Overcast
3:50 AM 21.2 °F 10.9 °F 17.6 °F 86% 30.09 in 6.2 mi NE 9.2 mph - N/A   Overcast
4:20 AM 21.2 °F 9.5 °F 17.6 °F 86% 30.09 in 6.2 mi NE 11.5 mph - N/A   Overcast
4:50 AM 21.2 °F 8.3 °F 17.6 °F 86% 30.09 in 6.2 mi NE 13.8 mph - N/A   Overcast
5:20 AM 19.4 °F 7.2 °F 17.6 °F 93% 30.09 in 6.2 mi NE 11.5 mph - N/A   Mostly Cloudy
5:50 AM 19.4 °F 8.6 °F 15.8 °F 86% 30.09 in 6.2 mi NE 9.2 mph - N/A   Mostly Cloudy
6:20 AM 19.4 °F 8.6 °F 15.8 °F 86% 30.09 in 6.2 mi NE 9.2 mph - N/A   Overcast
6:50 AM 19.4 °F 10.4 °F 15.8 °F 86% 30.09 in 6.2 mi NE 6.9 mph - N/A   Mostly Cloudy
7:20 AM 19.4 °F 9.5 °F 15.8 °F 86% 30.09 in 6.2 mi NE 8.1 mph - N/A   Overcast
7:50 AM 19.4 °F 9.5 °F 15.8 °F 86% 30.06 in 6.2 mi NE 8.1 mph - N/A   Mostly Cloudy
8:00 AM 18 °F - 14 °F 77% 30.10 in 6 mi NNE 6.7 mph - -   Mostly Cloudy
8:20 AM 19.4 °F 10.4 °F 17.6 °F 93% 30.06 in 6.2 mi NE 6.9 mph - N/A   Mostly Cloudy
8:50 AM 19.4 °F 10.4 °F 17.6 °F 93% 30.06 in 6.2 mi NE 6.9 mph - N/A   Overcast
9:20 AM 19.4 °F 10.4 °F 17.6 °F 93% 30.06 in 6.2 mi NE 6.9 mph - N/A   Overcast
9:50 AM 19.4 °F 10.4 °F 17.6 °F 93% 30.06 in 6.2 mi NE 6.9 mph - N/A   Overcast
10:20 AM 19.4 °F 9.5 °F 17.6 °F 93% 30.06 in 6.2 mi NE 8.1 mph - N/A   Mostly Cloudy
10:50 AM 19.4 °F 10.4 °F 17.6 °F 93% 30.06 in 6.2 mi NNE 6.9 mph - N/A   Mostly Cloudy
11:20 AM 19.4 °F 10.4 °F 17.6 °F 93% 30.06 in 6.2 mi NE 6.9 mph - N/A   Overcast
11:50 AM 21.2 °F 12.6 °F 17.6 °F 86% 30.06 in 6.2 mi NE 6.9 mph - N/A   Overcast
12:20 PM 21.2 °F 13.6 °F 17.6 °F 86% 30.06 in 6.2 mi NNE 5.8 mph - N/A   Overcast
12:50 PM 21.2 °F 11.7 °F 17.6 °F 86% 30.06 in 6.2 mi NE 8.1 mph - N/A   Mostly Cloudy
1:20 PM 21.2 °F 11.7 °F 17.6 °F 86% 30.06 in 6.2 mi NE 8.1 mph - N/A   Partly Cloudy
1:50 PM 21.2 °F 12.6 °F 17.6 °F 86% 30.04 in 6.2 mi NE 6.9 mph - N/A   Partly Cloudy
2:00 PM 21 °F - 16 °F 71% 30.06 in 11 mi NNE 6.7 mph - -   Scattered Clouds
2:20 PM 21.2 °F 13.6 °F 17.6 °F 86% 30.04 in - NNE 5.8 mph - N/A   Clear
2:50 PM 21.2 °F 14.9 °F 17.6 °F 86% 30.04 in - NNE 4.6 mph - N/A   Clear
3:20 PM 21.2 °F 13.6 °F 17.6 °F 86% 30.04 in - NE 5.8 mph - N/A   Clear
3:50 PM 21.2 °F 13.6 °F 17.6 °F 86% 30.04 in - NE 5.8 mph - N/A   Clear
4:20 PM 19.4 °F - 15.8 °F 86% 30.01 in - Variable 2.3 mph - N/A   Clear
4:50 PM 17.6 °F - 15.8 °F 93% 30.01 in - Calm Calm - N/A   Clear
5:20 PM 15.8 °F - 14.0 °F 93% 30.01 in - Calm Calm - N/A   Clear
5:50 PM 12.2 °F - 12.2 °F 100% 30.01 in - Calm Calm - N/A   Clear
6:20 PM 15.8 °F - 15.8 °F 100% 30.01 in - Variable 1.2 mph - N/A   Clear
6:50 PM 17.6 °F - 15.8 °F 93% 30.01 in - Variable 1.2 mph - N/A   Clear
7:20 PM 17.6 °F - 17.6 °F 100% 30.01 in - Variable 2.3 mph - N/A   Clear
7:50 PM 17.6 °F - 15.8 °F 93% 30.01 in - Variable 2.3 mph - N/A   Clear
8:00 PM 18 °F - 15 °F 82% 30.02 in 6 mi North 6.7 mph - -   Scattered Clouds
8:20 PM 17.6 °F 9.3 °F 17.6 °F 100% 30.01 in - NNE 5.8 mph - N/A   Clear
8:50 PM 19.4 °F 12.8 °F 17.6 °F 93% 30.01 in - NNE 4.6 mph - N/A   Clear
9:20 PM 17.6 °F 10.7 °F 15.8 °F 93% 29.98 in - NE 4.6 mph - N/A   Clear
9:50 PM 17.6 °F - 15.8 °F 93% 29.98 in - NNE 2.3 mph - N/A   Clear
10:20 PM 17.6 °F - 15.8 °F 93% 29.98 in - NNE 2.3 mph - N/A   Clear
10:50 PM 17.6 °F - 15.8 °F 93% 29.98 in - Variable 2.3 mph - N/A   Clear
11:20 PM 17.6 °F - 15.8 °F 93% 29.98 in - Variable 2.3 mph - N/A   Clear
11:50 PM 17.6 °F - 15.8 °F 93% 29.98 in - Variable 2.3 mph - N/A   Clear